Home   Weather   Riga   Past weeks

Flag for Latvia Past Weather in Riga, Latvia — Yesterday and Last 2 Weeks

Now
45 °F

Passing clouds.


Feels Like: 38 °F
Forecast: 28 / 46 °F
Wind: 14 mph from Northwest

Location: Riga Airport

Current Time: Apr 23, 2017 at 11:24:11 am

Latest Report: Apr 23, 2017 at 10:50 am


Visibility: N/A

Pressure: 29.68 "Hg

Humidity: 46%

Dew Point: 25 °F

Location of RigaLocation

Past Weather in Riga — Graph

°F

Riga Temperature Yesterday

Maximum temperature yesterday: 45 °F (at 1:50 pm)
Minimum temperature yesterday: 36 °F (at 5:50 am)
Average temperature yesterday: 40 °F

High & Low Weather Summary for the Past Weeks

 TemperatureHumidityPressure
High66 °F (Apr 10, 3:50 pm)100% (Apr 10, 4:20 am)30.51 "Hg (Apr 10, 4:20 am)
Low19 °F (Apr 20, 5:20 am)27% (Apr 8, 5:50 pm)29.27 "Hg (Apr 22, 4:50 am)
Average38 °F76%29.85 "Hg
* Reported Apr 8 10:20 am — Apr 23 10:20 am, Riga, Weather by CustomWeather, © 2017

Note: Actual official high and low records may vary slightly from our data, if they occured in-between our weather recording intervals... More about our weather records

Advertising

Riga Weather History for the Previous 24 Hours

Scroll right to see more
 ConditionsComfort  
Time TempWeatherWind HumidityBarometerVisibility
10:20 am
Sun, Apr 23
43 °FPassing clouds.14 mph49%29.68 "HgN/A
9:50 am43 °FPassing clouds.12 mph57%29.65 "HgN/A
9:20 am43 °FPassing clouds.10 mph57%29.65 "HgN/A
8:50 am41 °FPassing clouds.9 mph66%29.65 "HgN/A
8:20 am39 °FPassing clouds.9 mph70%29.65 "HgN/A
7:50 am39 °FPassing clouds.9 mph70%29.62 "HgN/A
7:20 am37 °FPassing clouds.10 mph75%29.62 "HgN/A
6:50 am37 °FPassing clouds.9 mph81%29.62 "HgN/A
6:20 am37 °FPassing clouds.9 mph81%29.59 "HgN/A
5:50 am37 °FPassing clouds.9 mph81%29.59 "HgN/A
5:20 am36 °FPassing clouds.9 mph87%29.59 "HgN/A
4:50 am37 °FOvercast.9 mph81%29.59 "HgN/A
4:20 am39 °FSprinkles. Mostly cloudy.10 mph81%29.56 "HgN/A
3:50 am39 °FPartly cloudy.9 mph81%29.56 "HgN/A
3:20 am39 °FSprinkles. Passing clouds.7 mph81%29.56 "HgN/A
2:50 am37 °FPartly cloudy.8 mph87%29.56 "HgN/A
2:20 am37 °FSprinkles. Partly cloudy.9 mph87%29.53 "HgN/A
1:50 am39 °FPartly cloudy.9 mph75%29.56 "HgN/A
1:20 am37 °FPartly cloudy.13 mph87%29.53 "HgN/A
12:50 am37 °FSprinkles. Partly cloudy.10 mph87%29.53 "HgN/A
12:20 am37 °FSprinkles. Partly cloudy.8 mph87%29.53 "HgN/A
11:50 pm
Sat, Apr 22
37 °FSprinkles. Partly cloudy.9 mph87%29.53 "HgN/A
11:20 pm37 °FPartly cloudy.10 mph87%29.53 "HgN/A
10:50 pm37 °FPartly cloudy.8 mph87%29.53 "HgN/A
10:20 pm37 °FPassing clouds.9 mph87%29.53 "HgN/A
9:50 pm37 °FPassing clouds.10 mph87%29.53 "HgN/A
9:20 pm37 °FPartly cloudy.10 mph87%29.53 "HgN/A
8:50 pm37 °FPassing clouds.14 mph87%29.53 "HgN/A
8:20 pm37 °FScattered clouds.9 mph87%29.50 "HgN/A
7:50 pm37 °FSprinkles. Partly sunny.13 mph93%29.50 "Hg6 mi
7:20 pm41 °FSprinkles. Partly sunny.13 mph70%29.50 "HgN/A
6:50 pm41 °FBroken clouds.12 mph70%29.50 "HgN/A
6:20 pm41 °FBroken clouds.12 mph70%29.50 "HgN/A
5:50 pm41 °FSprinkles. Broken clouds.10 mph76%29.50 "HgN/A
5:20 pm43 °FBroken clouds.12 mph71%29.50 "HgN/A
4:50 pm41 °FPartly sunny.15 mph76%29.47 "HgN/A
4:20 pm37 °FPartly sunny.13 mph93%29.47 "HgN/A
3:50 pm41 °FScattered clouds.12 mph81%29.47 "HgN/A
3:20 pm39 °FSprinkles. Broken clouds.15 mph81%29.47 "Hg6 mi
2:50 pm43 °FBroken clouds.9 mph66%29.45 "HgN/A
2:20 pm43 °FBroken clouds.10 mph66%29.45 "HgN/A
1:50 pm45 °FBroken clouds.9 mph57%29.45 "HgN/A
1:20 pm43 °FCloudy.10 mph61%29.42 "HgN/A
12:50 pm43 °FSprinkles. Cloudy.9 mph66%29.42 "HgN/A
12:20 pm43 °FBroken clouds.10 mph66%29.42 "HgN/A
11:50 am43 °FCloudy.9 mph66%29.42 "HgN/A
11:20 am43 °FMore clouds than sun.12 mph66%29.39 "HgN/A
Weather by CustomWeather, © 2017

See weather overviewHow to use our weather pages